Weather in Bogoroditsk

Russia / Tula Oblast     53°46′14″N   38°07′54″E
temp.,
°C
wind,
m/s
gust,
m/s
humid.,
%
clouds,
%
prec.,
mm/h
press.,
hPa
HPBL,
m
20 june, sun
sun2000:00+17s22880 0.0 102412
03:00+16s22900 0.0 102511
06:00+18sse22890 0.0 102487
09:00+21se23710 0.0 1024493
12:00+24se34580 0.0 1023904
15:00+25sse34566 0.0 10221159
18:00+25se246830 0.0 10221028
21:00+19ese228459 0.0 102212
21 june, mon
mon2100:00+18sse2284100 0.0 102222
03:00+16se2288100 0.0 102216
06:00+18ese2487100 0.0 1022109
09:00+23ese45748 0.0 1022441
12:00+26se456150 0.0 1021871
15:00+27se4559100 0.0 10211055
18:00+26ese467172 0.0 1020488
21:00+21ese378890 0.0 1021120
22 june, tue
tue2200:00+19se359241 0.0 102175
03:00+18se339279 0.0 102139
06:00+19se36905 0.0 1022162
09:00+24se457313 0.0 1022400
12:00+27se45614 0.0 1021863
15:00+28ese44554 0.0 10211151
18:00+27ese366988 0.0 1021291
21:00+22se338113 0.0 102134
23 june, wed
wed2300:00+20ese33838 0.0 102129
03:00+19ese228621 0.0 102121
06:00+20e34835 0.0 102285
09:00+25e35711 0.0 1021400
12:00+28ese34570 0.0 10211161
15:00+29e44530 0.0 10211434
18:00+28e34674 0.0 1021271
21:00+23e22805 0.0 102116
24 june, thu
thu2400:00+20e22843 0.0 102111
03:00+19e22896 0.0 102215
06:00+21e23855 0.0 102283
09:00+26ese337248 0.0 1021390
12:00+29ese236143 0.0 10211118
15:00+30ese225432 0.0 10211548
18:00+30ese116348 0.0 10201323
21:00+24ssw227527 0.0 102011